Location: Unspecified
(47.7670°N, 8.8522°E)
Time: 02:26:48
(UTC+01:00)

ISS - Pass Details

Date: 30 January 2019
Orbit: 403 x 411 km, 51.6° (Epoch: 17 February)

Event Time Altitude Azimuth Distance (km) Brightness Sun altitude
Rises 19:00:18 0° 276° (W) 2,334 1.6 -16.6°
Reaches altitude 10° 19:02:27 10° 284° (WNW) 1,475 0.1 -17.0°
Maximum altitude 19:05:37 41° 356° (N) 612 -3.0 -17.5°
Enters shadow 19:06:10 37° 24° (NNE) 657 -3.1 -17.6°
